• In Uzbekistan
  • List of Countries
  • For 7 days
  • Water Temperature
  • Satellite Maps
  • Weather Map
  • Weather Widgets
  • user-avatar
    Login

    Hourly Weather Zuwara

    Today, 17 January, Thursday

    Time Temperature Precipitation Wind Pressure Humidity
    00:00 +13°C° 0 mm 4 mps 766 mmHg 56%
    01:00 +12°C° 0 mm 4 mps 766 mmHg 58%
    02:00 +12°C° 0 mm 4 mps 765 mmHg 59%
    03:00 +12°C° 0 mm 4 mps 765 mmHg 60%
    04:00 +11°C° 0 mm 4 mps 764 mmHg 61%
    05:00 +11°C° 0 mm 4 mps 764 mmHg 62%
    06:00 +11°C° 0 mm 3 mps 764 mmHg 63%
    07:00 +11°C° 0 mm 3 mps 764 mmHg 64%
    08:00 +12°C° 0 mm 3 mps 764 mmHg 60%
    09:00 +13°C° 0 mm 3 mps 764 mmHg 56%
    10:00 +13°C° 0 mm 3 mps 764 mmHg 52%
    11:00 +16°C° 0 mm 3 mps 763 mmHg 47%
    12:00 +17°C° 0 mm 3 mps 763 mmHg 42%
    13:00 +18°C° 0 mm 2 mps 763 mmHg 37%
    14:00 +18°C° 0 mm 2 mps 762 mmHg 37%
    15:00 +19°C° 0 mm 2 mps 762 mmHg 36%
    16:00 +19°C° 0 mm 2 mps 761 mmHg 36%
    17:00 +18°C° 0 mm 3 mps 761 mmHg 44%
    18:00 +17°C° 0 mm 4 mps 761 mmHg 51%
    19:00 +15°C° 0 mm 5 mps 761 mmHg 59%
    20:00 +15°C° 0 mm 4 mps 761 mmHg 60%
    21:00 +14°C° 0 mm 3 mps 761 mmHg 61%
    22:00 +14°C° 0 mm 3 mps 762 mmHg 63%
    23:00 +15°C° 0 mm 2 mps 761 mmHg 62%

    Tomorrow, 18 January, Friday

    Time Temperature Precipitation Wind Pressure Humidity
    00:00 +14°C° 0 mm 2 mps 761 mmHg 61%
    01:00 +14°C° 0 mm 2 mps 761 mmHg 60%
    02:00 +13°C° 0 mm 3 mps 761 mmHg 63%
    03:00 +13°C° 0 mm 4 mps 761 mmHg 66%
    04:00 +12°C° 0 mm 4 mps 761 mmHg 69%
    05:00 +12°C° 0 mm 4 mps 761 mmHg 67%
    06:00 +12°C° 0 mm 4 mps 761 mmHg 65%
    07:00 +11°C° 0 mm 4 mps 761 mmHg 63%
    08:00 +12°C° 0 mm 4 mps 761 mmHg 58%
    09:00 +13°C° 0 mm 4 mps 762 mmHg 52%
    10:00 +14°C° 0 mm 4 mps 762 mmHg 47%
    11:00 +14°C° 0 mm 4 mps 762 mmHg 45%
    12:00 +15°C° 0 mm 4 mps 762 mmHg 43%
    13:00 +17°C° 0 mm 4 mps 761 mmHg 42%
    14:00 +17°C° 0 mm 3 mps 761 mmHg 40%
    15:00 +17°C° 0 mm 3 mps 761 mmHg 39%
    16:00 +17°C° 0 mm 3 mps 761 mmHg 37%
    17:00 +17°C° 0 mm 2 mps 761 mmHg 40%
    18:00 +16°C° 0 mm 2 mps 761 mmHg 43%
    19:00 +15°C° 0 mm 1 mps 762 mmHg 45%
    20:00 +15°C° 0 mm 1 mps 762 mmHg 45%
    21:00 +14°C° 0 mm 1 mps 762 mmHg 45%
    22:00 +14°C° 0 mm 1 mps 762 mmHg 44%
    23:00 +14°C° 0 mm 1 mps 762 mmHg 45%

    Day after tomorrow, 19 January, Saturday

    Time Temperature Precipitation Wind Pressure Humidity
    00:00 +14°C° 0 mm 2 mps 762 mmHg 46%
    01:00 +14°C° 0 mm 2 mps 762 mmHg 46%
    02:00 +12°C° 0 mm 3 mps 762 mmHg 49%
    03:00 +12°C° 0 mm 3 mps 762 mmHg 51%
    04:00 +12°C° 0 mm 3 mps 762 mmHg 54%
    05:00 +12°C° 0 mm 3 mps 762 mmHg 54%
    06:00 +11°C° 0 mm 3 mps 762 mmHg 55%
    07:00 +11°C° 0 mm 3 mps 762 mmHg 56%
    08:00 +12°C° 0 mm 3 mps 762 mmHg 52%
    09:00 +13°C° 0 mm 3 mps 763 mmHg 49%
    10:00 +13°C° 0 mm 3 mps 763 mmHg 45%
    11:00 +14°C° 0 mm 3 mps 763 mmHg 42%
    12:00 +16°C° 0 mm 3 mps 762 mmHg 39%
    13:00 +17°C° 0 mm 3 mps 762 mmHg 36%
    14:00 +17°C° 0 mm 2 mps 762 mmHg 35%
    15:00 +17°C° 0 mm 2 mps 762 mmHg 34%
    16:00 +17°C° 0 mm 2 mps 762 mmHg 33%
    17:00 +16°C° 0 mm 2 mps 762 mmHg 36%
    18:00 +16°C° 0 mm 2 mps 762 mmHg 39%
    19:00 +15°C° 0 mm 1 mps 763 mmHg 42%
    20:00 +14°C° 0 mm 1 mps 763 mmHg 44%
    21:00 +14°C° 0 mm 1 mps 763 mmHg 46%
    22:00 +12°C° 0 mm 0 mps 763 mmHg 47%
    23:00 +13°C° 0 mm 1 mps 763 mmHg 46%

    20 January, Sunday

    Time Temperature Precipitation Wind Pressure Humidity
    00:00 +13°C° 0 mm 2 mps 763 mmHg 44%
    01:00 +12°C° 0 mm 3 mps 763 mmHg 43%
    02:00 +12°C° 0 mm 3 mps 763 mmHg 44%
    03:00 +12°C° 0 mm 3 mps 763 mmHg 45%
    04:00 +11°C° 0 mm 4 mps 763 mmHg 47%
    05:00 +11°C° 0 mm 4 mps 763 mmHg 48%
    06:00 +11°C° 0 mm 4 mps 763 mmHg 49%
    07:00 +10°C° 0 mm 4 mps 763 mmHg 49%
    08:00 +10°C° 0 mm 5 mps 764 mmHg 48%
    09:00 +12°C° 0 mm 5 mps 764 mmHg 47%
    10:00 +13°C° 0 mm 5 mps 764 mmHg 45%
    11:00 +14°C° 0 mm 5 mps 764 mmHg 42%
    12:00 +15°C° 0 mm 5 mps 763 mmHg 39%
    13:00 +17°C° 0 mm 4 mps 763 mmHg 36%
    14:00 +18°C° 0 mm 4 mps 763 mmHg 35%
    15:00 +18°C° 0 mm 4 mps 762 mmHg 34%
    16:00 +18°C° 0 mm 3 mps 762 mmHg 33%
    17:00 +17°C° 0 mm 3 mps 762 mmHg 35%
    18:00 +17°C° 0 mm 3 mps 763 mmHg 37%
    19:00 +16°C° 0 mm 3 mps 763 mmHg 39%
    20:00 +15°C° 0 mm 4 mps 763 mmHg 40%
    21:00 +14°C° 0 mm 5 mps 763 mmHg 40%
    22:00 +14°C° 0 mm 6 mps 763 mmHg 41%
    23:00 +13°C° 0 mm 6 mps 763 mmHg 42%

    21 January, Monday

    Time Temperature Precipitation Wind Pressure Humidity
    00:00 +13°C° 0 mm 6 mps 763 mmHg 43%
    01:00 +13°C° 0 mm 6 mps 763 mmHg 44%
    02:00 +11°C° 0 mm 6 mps 762 mmHg 44%
    03:00 +11°C° 0 mm 6 mps 762 mmHg 43%
    04:00 +11°C° 0 mm 6 mps 762 mmHg 43%
    05:00 +11°C° 0 mm 6 mps 762 mmHg 43%
    06:00 +11°C° 0 mm 7 mps 762 mmHg 44%
    07:00 +11°C° 0 mm 7 mps 762 mmHg 44%
    08:00 +12°C° 0 mm 7 mps 762 mmHg 41%
    09:00 +14°C° 0 mm 7 mps 762 mmHg 38%
    10:00 +15°C° 0 mm 8 mps 762 mmHg 36%
    11:00 +16°C° 0 mm 7 mps 762 mmHg 33%
    12:00 +18°C° 0 mm 7 mps 761 mmHg 31%
    13:00 +20°C° 0 mm 7 mps 761 mmHg 29%
    14:00 +20°C° 0 mm 7 mps 760 mmHg 29%
    15:00 +21°C° 0 mm 7 mps 760 mmHg 28%
    16:00 +21°C° 0 mm 6 mps 759 mmHg 28%
    17:00 +20°C° 0 mm 6 mps 759 mmHg 30%
    18:00 +17°C° 0 mm 5 mps 760 mmHg 31%
    19:00 +16°C° 0 mm 5 mps 760 mmHg 33%
    20:00 +16°C° 0 mm 5 mps 760 mmHg 36%
    21:00 +15°C° 0 mm 5 mps 760 mmHg 40%
    22:00 +14°C° 0 mm 5 mps 761 mmHg 43%
    23:00 +14°C° 0 mm 5 mps 761 mmHg 50%

    22 January, Tuesday

    Time Temperature Precipitation Wind Pressure Humidity
    00:00 +14°C° 0 mm 5 mps 761 mmHg 57%
    01:00 +13°C° 0 mm 5 mps 761 mmHg 64%
    02:00 +13°C° 0.1 mm 5 mps 760 mmHg 69%
    03:00 +13°C° 0.1 mm 5 mps 760 mmHg 74%
    04:00 +12°C° 0.1 mm 5 mps 760 mmHg 79%
    05:00 +12°C° 0 mm 4 mps 760 mmHg 77%
    06:00 +12°C° 0 mm 4 mps 760 mmHg 75%
    07:00 +12°C° 0 mm 4 mps 761 mmHg 73%
    08:00 +13°C° 0 mm 4 mps 761 mmHg 69%
    09:00 +13°C° 0 mm 4 mps 761 mmHg 64%
    10:00 +14°C° 0 mm 4 mps 761 mmHg 59%
    11:00 +15°C° 0 mm 4 mps 760 mmHg 56%
    12:00 +15°C° 0 mm 4 mps 760 mmHg 53%
    13:00 +15°C° 0 mm 5 mps 759 mmHg 50%
    14:00 +15°C° 0 mm 5 mps 759 mmHg 46%
    15:00 +16°C° 0 mm 5 mps 759 mmHg 43%
    16:00 +16°C° 0 mm 5 mps 758 mmHg 39%
    17:00 +15°C° 0 mm 4 mps 758 mmHg 39%
    18:00 +14°C° 0 mm 4 mps 759 mmHg 39%
    19:00 +14°C° 0 mm 3 mps 759 mmHg 39%
    20:00 +13°C° 0 mm 4 mps 759 mmHg 40%
    21:00 +13°C° 0 mm 4 mps 759 mmHg 41%
    22:00 +12°C° 0 mm 4 mps 759 mmHg 42%
    23:00 +12°C° 0 mm 5 mps 758 mmHg 43%
    Show more